Wind_Speed
18 20 22 24 25 26 27 28 29 30 31 32 33 33 33 32 32 31 29 27 23 19 17 18 16 12 8 5 2 5 10 17 22 24 18 11 14 15 15 16 15 16 15 12 13 11 3 4 8 5 0 0 2 1 1 2 1 2 2 1 0 1 1 2 1 2 4 8 10 6 2 6 8 4 4 5 7 8 9 8 7 7 9 13 16 16 17 21
18 20 22 24 25 26 27 28 28 29 30 32 33 34 34 33 32 32 30 29 25 22 21 21 18 12 8 4 2 7 5 10 18 20 16 14 15 15 16 16 15 15 14 12 12 11 6 6 7 5 2 0 1 0 1 1 1 2 1 2 0 2 2 1 1 2 3 8 14 13 4 3 7 6 5 7 10 9 9 8 6 7 9 9 10 9 11 15
18 21 22 24 25 26 26 27 28 29 30 31 32 33 33 33 33 32 30 29 26 24 24 23 19 13 9 4 3 8 7 3 11 12 14 17 15 15 15 15 15 14 12 10 9 8 6 4 4 4 3 1 1 0 1 1 1 1 1 2 2 2 0 1 1 0 2 6 13 14 6 6 5 3 3 7 13 11 7 10 11 14 17 18 16 13 14 15
18 21 22 24 24 25 26 27 28 28 29 31 32 33 33 34 34 32 30 30 27 24 27 24 18 13 8 4 4 8 8 3 5 7 14 16 14 14 13 13 14 12 10 8 6 7 5 3 3 4 2 1 1 1 1 2 1 1 2 2 4 2 1 3 2 2 1 3 10 14 9 8 4 1 3 6 10 8 9 12 13 14 15 16 18 18 19 19
18 20 22 23 24 24 25 26 27 28 29 30 32 33 33 34 34 32 31 30 26 24 28 24 17 11 7 3 4 8 6 1 4 8 14 15 13 12 11 12 13 11 9 7 5 6 5 3 3 2 2 1 1 1 1 2 1 1 2 2 3 2 2 4 2 0 1 2 8 13 9 7 5 2 4 5 6 7 10 13 13 13 12 12 12 12 16 18
18 20 22 23 23 24 25 26 27 28 29 30 32 33 34 34 33 32 31 29 25 24 27 23 14 9 10 8 8 6 2 0 6 10 13 14 11 10 11 12 12 10 8 7 7 5 4 4 3 1 1 1 0 1 1 2 1 2 2 1 1 3 1 2 3 2 2 4 8 10 6 5 8 5 2 5 7 7 10 12 11 10 9 9 9 9 14 17
18 20 21 22 22 23 24 26 26 28 29 30 32 33 34 34 33 32 30 29 24 23 26 21 11 6 9 12 11 7 4 4 8 10 12 14 11 10 11 10 10 8 6 7 8 6 3 5 3 1 2 1 0 1 1 1 2 3 2 0 2 4 2 2 2 2 4 7 9 8 7 7 9 4 3 6 6 6 8 8 7 9 10 10 12 14 16 18
18 19 21 21 22 23 24 25 26 27 29 31 32 32 34 34 33 32 30 29 22 22 27 19 10 4 2 5 6 6 6 4 10 11 13 14 10 10 10 8 9 8 7 9 8 5 2 4 3 1 2 1 0 1 1 3 4 4 3 3 1 3 2 3 3 5 6 7 6 5 10 9 3 2 3 3 6 7 4 5 7 10 11 13 16 17 17 18
18 19 20 21 22 24 24 25 26 27 29 31 31 31 34 33 32 31 30 29 21 22 27 16 9 5 0 2 1 2 4 6 10 13 15 13 10 10 8 8 10 9 7 9 8 6 2 2 2 1 3 1 1 2 1 3 1 2 5 5 6 5 2 3 3 5 4 3 2 3 12 8 5 1 4 4 8 5 4 8 11 11 13 15 15 17 18 18
18 19 20 21 22 24 24 25 25 27 29 31 31 31 33 32 31 31 30 28 21 23 25 13 8 6 0 1 1 2 3 5 9 13 14 11 8 7 8 10 10 9 6 6 7 6 3 1 1 1 2 1 1 2 1 2 1 1 7 8 11 9 3 3 4 4 3 2 3 3 14 10 3 3 2 7 6 7 10 13 14 13 15 16 16 16 17 18
18 19 20 22 22 24 24 25 25 26 29 30 30 30 32 31 29 30 29 25 23 25 21 9 9 13 10 5 4 4 2 4 9 14 13 9 7 7 11 11 9 8 5 4 5 5 3 0 2 1 1 0 1 2 2 1 2 2 6 9 12 7 3 5 3 2 3 3 4 5 13 9 2 1 5 8 6 10 12 13 15 15 15 15 16 15 15 17
17 18 20 21 22 24 24 25 25 26 28 30 30 29 31 30 28 30 26 23 27 24 13 6 7 11 13 9 6 4 2 5 10 13 12 8 7 8 12 11 8 7 4 2 3 2 2 1 3 1 1 1 2 2 2 0 2 2 3 6 11 6 5 7 5 2 2 3 5 6 8 6 2 2 7 8 7 11 9 14 14 14 13 13 14 13 13 16
17 18 20 21 22 24 23 24 25 26 28 30 29 28 30 28 26 29 22 23 29 18 9 6 2 1 4 5 3 1 1 6 11 12 11 9 7 6 10 10 8 6 3 2 2 2 2 1 2 1 1 2 3 2 1 1 1 1 0 2 7 7 2 6 6 4 2 6 5 3 5 4 3 3 6 4 6 9 8 14 12 11 12 12 12 11 12 15
17 18 20 21 23 23 23 25 25 26 28 29 28 27 28 25 25 27 20 24 28 12 8 8 3 3 3 3 2 1 2 4 9 12 12 11 6 3 8 9 6 5 3 2 2 3 2 2 2 1 2 1 2 2 3 2 1 2 1 2 2 4 5 3 6 6 5 5 1 7 5 5 8 5 5 2 4 6 11 14 12 11 11 10 11 12 12 14
17 19 20 21 22 23 23 24 25 27 27 29 28 27 27 22 24 25 17 25 25 8 6 7 5 3 4 3 2 1 3 3 8 13 13 12 7 2 7 6 5 4 3 3 3 4 4 2 2 0 0 1 2 3 4 2 2 1 2 2 2 3 8 9 5 7 8 2 4 7 3 5 10 7 8 9 4 9 14 13 12 12 11 11 10 11 11 13
17 19 19 21 22 22 23 24 25 26 26 29 26 26 25 19 25 22 14 26 22 7 7 5 4 2 3 3 2 1 4 3 8 11 10 12 8 5 8 4 5 3 3 3 3 4 5 2 1 2 2 1 3 4 5 3 1 2 3 5 5 5 9 9 2 7 9 8 4 2 3 6 9 9 13 11 9 16 14 12 12 11 11 11 10 10 11 12
17 18 19 21 22 22 23 24 25 26 27 27 25 26 21 16 24 17 11 26 16 7 8 6 4 2 2 2 1 1 3 3 6 9 9 9 6 5 7 2 3 3 3 2 1 1 4 2 1 1 0 1 3 4 5 5 4 3 4 5 6 7 9 9 2 4 10 9 5 2 1 6 10 11 14 8 14 17 13 12 11 11 10 10 10 10 11 12
16 18 19 21 22 23 23 24 25 26 27 26 25 26 18 15 19 10 13 26 10 3 5 6 5 1 2 2 0 2 5 5 4 8 9 8 5 3 4 3 1 1 3 1 2 2 3 0 1 2 1 2 5 5 5 5 6 6 6 6 7 6 7 11 8 6 11 11 9 6 1 5 11 12 12 10 17 16 13 11 10 11 11 10 10 10 11 13
16 18 19 20 22 22 22 24 25 26 27 25 26 24 15 15 11 3 15 22 6 1 3 3 4 2 1 2 3 6 6 4 2 7 10 8 5 1 3 4 1 1 1 2 3 5 4 2 1 2 3 5 6 4 3 5 6 8 7 6 8 9 7 10 11 7 12 14 10 7 7 8 10 13 10 14 17 14 13 10 9 10 10 10 10 10 10 12
16 18 18 20 22 22 23 23 24 26 25 25 26 19 9 10 5 1 11 12 4 2 3 1 1 3 3 2 4 8 4 1 0 6 11 9 4 3 0 3 2 1 4 3 4 2 2 3 2 1 4 7 6 3 4 5 4 6 7 6 8 10 7 8 11 6 11 14 9 10 14 8 10 14 9 15 14 14 12 11 10 9 8 8 8 9 9 10
16 17 18 20 21 22 22 21 23 22 21 23 22 12 3 4 4 3 7 5 2 1 2 2 2 5 6 4 6 8 2 1 1 5 12 9 2 2 1 3 2 4 3 2 4 1 2 3 1 0 3 4 4 2 3 4 4 5 6 7 8 8 9 11 9 5 11 11 10 16 17 8 10 12 10 15 12 13 11 11 10 10 9 7 8 9 9 8
16 17 18 19 20 21 20 20 21 18 17 20 17 11 5 2 1 1 2 4 2 1 1 2 2 5 5 3 4 6 2 1 2 4 12 11 3 1 3 3 2 4 3 2 3 2 3 2 2 2 2 1 0 0 2 4 5 5 5 6 7 6 10 9 2 4 10 8 10 17 15 9 9 6 13 13 12 12 9 10 9 9 10 9 9 9 9 10
16 17 18 18 19 19 18 18 17 14 16 18 15 9 4 3 2 2 2 3 4 1 0 0 1 3 2 1 2 4 2 1 1 4 12 11 3 3 2 2 2 1 1 2 2 3 4 2 3 2 2 2 1 1 2 4 4 3 4 5 6 7 9 5 1 9 12 7 8 14 12 8 2 8 13 10 10 10 6 7 8 8 10 10 8 8 10 12
16 17 17 18 18 17 17 16 12 11 13 14 14 9 4 3 2 2 2 2 3 2 0 0 1 2 1 2 2 2 1 1 1 4 11 9 1 1 1 2 1 2 1 2 2 3 6 3 3 2 2 1 3 2 1 4 4 1 2 3 5 7 7 7 10 16 13 4 3 11 12 3 5 6 7 8 8 8 6 7 10 10 9 9 8 9 10 11
16 17 17 17 17 16 16 12 8 10 10 9 9 7 4 2 2 4 1 2 2 1 1 2 1 1 2 1 2 2 1 1 1 4 8 8 2 1 1 1 2 1 2 1 1 4 4 2 1 1 2 2 3 4 1 2 6 3 2 2 5 7 8 11 14 15 12 5 5 11 11 3 3 3 7 7 5 6 7 10 12 11 10 9 10 11 11 12
16 16 17 17 16 15 12 6 6 11 7 4 5 4 3 0 4 6 1 1 1 1 1 2 1 2 2 1 3 1 2 2 2 4 5 6 3 1 1 1 1 1 2 1 2 3 1 2 1 1 1 2 3 4 1 1 5 4 1 2 4 6 9 12 13 10 8 9 5 8 6 8 5 2 9 8 6 6 7 9 11 10 10 10 11 11 13 14
16 16 16 16 15 13 7 2 5 8 3 1 4 2 1 0 6 7 1 1 1 1 1 1 0 1 1 1 1 1 1 0 0 2 4 6 3 1 2 1 1 0 1 1 3 1 2 1 0 2 2 2 4 4 1 1 4 2 1 2 4 7 11 12 11 7 7 10 6 2 5 8 7 2 9 8 5 5 8 11 12 11 12 13 13 14 16 18
15 15 15 15 14 11 5 2 4 4 1 3 3 1 1 3 7 6 2 2 1 1 1 0 1 1 0 1 1 0 1 1 1 0 3 6 4 1 2 1 2 1 2 3 4 1 1 1 1 2 1 2 3 2 2 2 2 1 1 3 5 6 10 10 9 9 7 7 6 4 5 6 6 2 5 6 4 6 10 12 13 13 14 14 15 18 20 20
14 14 14 14 11 7 5 3 2 1 1 3 2 0 3 7 6 2 1 1 1 1 1 0 2 1 2 1 1 1 1 0 1 2 2 3 5 2 1 0 2 2 3 3 4 0 1 1 1 0 2 2 1 2 2 2 1 2 2 4 5 6 8 7 7 8 6 5 8 5 2 4 6 4 2 2 4 6 9 10 11 12 13 15 17 20 21 20
14 13 13 12 8 4 4 3 1 2 3 3 1 2 6 6 2 2 1 2 0 1 1 0 1 1 3 2 1 1 1 0 1 3 1 1 4 5 2 0 0 3 2 1 3 1 1 1 1 1 1 1 4 3 2 3 1 4 3 3 5 6 6 6 5 4 4 4 5 2 3 2 6 3 1 1 4 5 8 9 10 12 15 17 19 19 20 19
13 13 12 11 7 3 3 1 1 3 3 2 2 3 4 2 1 2 2 1 1 1 1 0 1 1 2 0 2 0 1 1 1 2 1 1 1 3 2 2 1 2 2 3 3 1 1 2 1 0 1 1 3 2 1 1 3 3 2 6 7 5 4 5 4 1 2 3 3 6 3 3 7 3 3 5 4 6 7 10 12 15 18 19 19 19 19 18
13 12 11 10 6 3 1 1 1 3 2 2 3 1 2 1 1 4 2 1 0 1 1 1 0 1 3 1 3 1 0 1 0 1 1 1 1 1 1 2 1 2 4 2 1 2 1 3 1 1 0 0 2 3 3 3 1 2 4 5 5 5 4 4 4 2 5 4 6 5 4 5 10 8 3 7 5 6 7 10 12 15 18 19 19 19 17 16
12 11 10 9 5 2 1 1 1 2 2 2 1 1 1 1 3 3 1 1 0 1 1 1 0 1 1 2 3 1 0 2 2 2 2 1 1 1 2 2 1 3 3 1 0 2 1 2 0 2 2 0 2 2 2 1 3 4 3 2 2 4 6 6 6 5 6 4 4 2 3 5 10 6 6 7 5 6 8 11 10 12 15 17 18 18 17 17
11 10 9 7 4 2 2 3 1 2 2 1 1 0 1 3 3 0 2 3 1 1 2 1 1 1 2 3 2 1 2 2 2 1 1 2 2 3 3 4 2 1 1 0 1 1 3 2 1 2 1 1 0 1 2 1 3 3 3 0 2 1 4 6 5 5 8 9 6 4 3 4 5 1 9 5 2 6 10 11 8 11 14 16 17 17 17 18
10 8 8 7 5 3 4 4 3 4 3 2 1 2 3 5 3 1 2 2 1 1 1 2 1 2 4 4 1 1 4 2 3 1 3 3 3 3 2 3 4 2 2 2 1 1 4 4 2 2 1 1 2 1 2 1 3 3 2 2 3 1 4 6 3 2 5 10 9 4 4 3 1 6 9 2 5 10 13 11 11 15 17 17 17 17 17 18
8 7 6 7 7 5 6 5 5 7 4 2 1 5 6 4 2 2 2 1 1 1 1 2 3 3 4 2 1 1 2 2 0 1 3 3 4 3 2 2 2 3 2 1 1 2 3 2 4 2 1 4 2 0 1 2 0 3 2 2 1 2 2 5 4 1 2 8 7 4 6 7 2 6 7 2 10 14 13 13 15 19 20 20 18 17 18 19
6 5 4 7 7 5 8 7 8 8 4 2 4 7 4 3 3 3 2 2 0 2 0 3 2 3 4 2 2 3 3 2 1 1 2 2 2 4 5 2 2 2 2 2 1 1 2 2 3 3 3 4 2 2 6 4 3 1 2 1 3 3 2 1 2 2 4 8 6 6 10 9 6 2 2 5 13 15 15 17 20 21 22 22 20 20 21 22
4 2 4 8 7 8 10 9 10 6 2 2 7 8 3 3 4 3 4 3 1 2 3 4 3 3 3 4 2 4 4 3 3 2 2 3 2 4 7 4 4 3 1 2 1 1 1 3 3 2 3 4 1 1 5 3 4 2 2 1 1 3 3 3 1 3 6 8 7 8 11 9 7 3 2 8 14 15 17 20 22 24 23 22 22 23 24 25
3 0 2 6 8 10 12 11 8 4 1 4 8 7 3 3 3 3 5 4 2 2 3 5 5 3 3 3 2 3 5 4 3 2 3 3 2 3 6 4 4 4 1 1 2 1 0 2 1 2 3 3 2 3 3 3 3 2 0 1 0 2 2 2 1 1 5 7 7 8 10 6 3 1 4 11 13 14 18 20 21 23 23 22 21 22 23 24
3 1 1 6 11 13 14 11 5 2 3 5 6 4 2 2 3 3 5 4 2 3 4 4 6 5 4 4 3 2 4 4 4 3 3 3 1 3 5 4 5 6 2 1 1 1 2 2 2 3 2 2 3 3 3 4 4 3 4 4 3 1 2 1 1 2 3 6 6 7 10 6 2 3 7 11 11 12 18 21 20 21 23 23 22 23 24 24
3 0 2 7 13 17 14 7 2 3 3 3 4 3 2 2 3 3 4 3 2 2 1 2 5 6 4 3 4 3 3 3 5 4 4 4 3 3 4 3 7 8 4 3 3 2 3 2 2 4 4 5 2 2 2 2 4 5 6 5 4 4 3 3 4 3 2 4 4 5 11 10 2 1 5 6 7 12 18 21 20 21 23 24 23 25 26 25
2 1 3 10 17 18 11 3 2 2 3 3 2 3 2 3 4 4 4 2 2 2 1 2 4 4 4 5 3 3 3 3 5 5 5 6 4 2 3 3 5 6 3 2 2 1 1 1 3 4 4 2 2 4 3 4 5 4 4 4 4 4 4 3 5 2 1 4 4 5 11 9 0 2 2 4 9 15 18 19 20 20 22 24 25 26 27 26
2 2 4 12 19 15 7 4 2 1 4 2 1 2 3 3 3 4 5 5 3 3 3 3 4 5 6 5 3 4 5 4 6 7 4 4 2 1 3 5 5 5 3 2 2 2 2 2 3 4 2 3 3 3 3 1 4 5 3 5 5 4 4 4 5 4 3 5 6 6 10 7 3 5 2 8 14 17 16 18 21 20 20 23 26 27 26 26
2 1 3 9 16 12 6 6 5 5 6 3 3 4 2 2 5 6 6 8 6 5 4 4 5 6 6 3 3 6 7 5 6 6 3 3 2 2 3 4 3 4 2 1 2 3 2 3 3 2 3 2 2 3 3 1 3 4 4 7 7 5 4 2 4 3 4 8 9 7 9 8 2 1 9 14 15 18 18 19 20 19 20 23 24 25 25 25
2 1 1 5 10 9 5 4 5 7 9 8 8 9 5 4 6 8 10 11 7 5 4 3 2 4 3 3 2 5 8 7 6 3 2 3 2 1 1 1 0 1 1 1 0 1 2 2 3 3 6 6 5 3 2 4 5 4 5 8 9 8 8 5 4 5 6 7 9 9 9 11 10 12 17 16 17 20 21 20 20 20 22 24 22 23 24 24
2 2 1 2 4 7 4 1 2 7 9 8 9 9 10 9 5 5 9 10 6 5 4 1 2 2 2 4 5 6 7 6 3 1 2 4 3 1 1 1 0 1 1 1 2 1 1 2 5 8 10 9 8 4 4 5 5 6 7 9 10 10 11 8 5 6 7 5 8 12 13 15 18 18 17 18 19 21 20 21 23 22 23 24 23 23 24 24
2 3 4 4 2 6 6 4 5 7 7 7 6 5 11 14 8 3 6 7 5 6 4 1 5 7 6 8 8 6 6 6 4 3 3 4 3 1 2 2 1 3 4 2 2 1 2 2 7 11 13 11 9 6 2 3 7 9 8 10 10 10 11 10 8 9 8 6 10 13 11 13 17 17 18 20 19 18 20 22 23 22 22 22 23 26 27 26
4 2 4 6 5 7 8 7 9 11 11 9 7 7 9 13 12 9 7 4 2 6 6 5 8 14 14 11 8 5 6 7 7 4 4 4 5 4 3 3 3 4 4 3 1 2 2 3 5 7 11 10 7 9 6 5 9 9 10 14 13 10 11 12 13 14 11 9 13 14 14 16 17 17 19 20 17 17 21 22 23 22 21 22 24 26 26 26
3 1 1 3 5 6 6 8 12 15 16 13 10 11 11 15 18 12 5 3 2 7 12 12 12 15 17 13 10 8 9 8 7 5 5 4 5 5 4 3 4 5 6 4 1 1 2 2 3 4 7 8 7 10 11 10 10 10 12 17 15 12 14 13 13 15 15 17 19 18 20 21 17 15 17 17 16 16 18 19 21 21 20 23 26 26 25 26
5 4 3 1 4 4 2 5 10 12 14 14 12 13 14 19 21 12 5 9 11 8 12 18 17 14 16 16 14 14 14 11 6 5 7 6 4 4 4 3 5 6 6 5 2 2 2 1 2 1 4 6 8 11 11 10 10 10 13 18 16 14 15 15 13 12 13 16 18 17 19 17 12 11 14 16 15 16 17 19 20 18 19 23 24 24 26 26
13 10 10 4 4 7 5 5 8 9 11 12 13 15 16 19 22 15 10 15 17 10 13 21 20 10 9 13 17 17 12 7 4 5 9 8 5 5 4 4 7 9 6 5 3 3 4 2 2 1 4 4 5 8 8 7 7 10 15 20 19 13 12 11 9 9 10 13 14 13 13 11 9 11 14 17 18 18 18 18 18 17 19 22 23 23 25 25
14 7 9 6 6 9 9 6 8 10 12 12 15 18 18 18 18 16 11 10 13 11 11 15 15 7 5 11 17 13 5 6 5 4 5 3 3 3 3 4 7 9 8 6 3 3 4 3 2 2 3 2 4 4 3 3 5 8 11 14 14 11 11 10 8 10 13 12 10 9 9 10 11 13 15 18 20 19 17 15 15 17 19 19 21 22 23 24
Wind_Direction
10 9 8 7 7 7 7 8 8 7 7 6 4 4 5 6 7 7 8 9 12 13 7 2 358 355 352 3 74 128 81 65 59 51 48 22 358 3 4 4 4 0 360 4 12 17 30 22 24 26 51 120 359 32 11 9 351 279 231 257 260 133 86 133 144 35 328 324 325 323 25 334 328 360 340 293 253 254 283 288 263 246 239 246 260 283 305 315
8 7 5 5 5 5 6 6 5 5 5 5 3 2 1 2 4 5 5 6 9 11 6 360 358 358 350 352 171 175 139 63 55 51 33 7 1 4 3 6 4 1 4 8 16 17 18 17 5 353 348 358 352 165 213 10 321 280 228 285 58 98 64 82 46 54 322 322 317 317 359 336 322 350 344 307 303 297 298 325 345 331 330 304 282 294 322 324
6 5 3 3 3 4 4 4 3 3 3 2 2 0 360 360 2 3 2 4 7 8 4 360 1 356 350 5 173 178 176 81 50 38 9 0 2 3 2 8 7 6 10 5 10 19 28 24 349 342 339 345 40 330 262 12 295 285 252 286 70 90 28 168 247 297 316 315 306 310 332 320 333 16 310 298 306 313 342 7 7 353 354 346 336 342 341 334
4 2 3 2 2 2 2 2 2 1 1 0 360 359 359 359 359 360 359 1 5 7 3 1 3 356 4 50 164 170 169 108 48 356 352 360 1 2 4 11 10 11 12 0 0 12 26 22 6 18 340 281 70 204 263 4 338 150 244 314 76 119 299 133 205 298 289 284 294 300 303 309 347 102 267 292 307 335 14 11 6 356 350 343 337 340 344 348
1 1 2 2 1 360 359 360 360 360 359 359 359 358 358 358 358 358 358 359 2 6 3 1 5 8 28 58 153 156 176 181 27 348 353 0 1 4 4 7 7 11 13 8 8 4 19 11 1 39 355 294 12 223 135 42 337 215 222 312 90 164 329 105 140 7 155 269 285 289 300 321 326 264 263 290 309 345 2 3 6 355 345 335 326 333 348 359
359 360 1 1 360 358 358 358 358 358 358 358 358 357 357 358 359 356 355 356 359 5 2 360 9 37 58 75 122 127 166 99 6 350 356 358 358 2 358 359 3 10 10 16 19 7 16 355 332 9 336 231 332 344 48 75 278 270 203 237 158 172 302 106 136 152 200 284 278 289 324 329 297 292 325 291 280 309 346 6 6 345 335 324 325 355 11 16
358 358 359 360 359 357 356 356 357 357 357 358 357 356 356 357 358 356 352 353 357 4 2 359 10 54 74 78 96 80 71 66 359 346 355 352 346 347 350 356 3 7 4 12 13 2 7 349 350 24 277 217 147 347 13 311 238 255 247 281 160 155 207 240 174 205 234 262 270 304 321 293 290 312 342 288 289 329 356 14 2 346 350 356 11 24 28 29
355 356 358 358 358 356 355 356 356 356 357 357 356 356 355 356 357 354 351 352 355 5 1 356 6 20 82 72 90 74 67 20 347 344 343 343 339 342 349 1 10 15 21 27 14 346 337 351 12 218 274 41 142 267 349 288 215 214 274 325 294 161 185 237 248 250 238 252 270 306 298 292 335 328 267 301 23 30 14 26 18 9 16 25 33 35 35 33
353 355 356 357 357 354 354 356 356 355 356 356 356 356 355 355 355 353 352 353 356 3 358 354 1 354 315 47 115 94 43 344 342 344 338 343 345 346 1 19 23 28 35 32 14 347 337 1 19 285 304 35 219 271 304 287 219 201 289 314 302 294 288 249 237 234 215 246 253 299 300 315 68 232 214 90 53 20 350 34 35 33 40 41 43 40 37 34
351 353 355 355 355 353 354 356 355 355 355 355 355 355 355 353 353 353 353 354 357 356 354 358 10 7 54 4 145 103 21 337 350 353 349 357 355 352 16 26 32 40 42 23 16 17 11 340 9 342 295 240 204 252 228 281 21 335 300 306 291 288 297 232 185 168 154 175 194 299 312 322 30 275 128 83 51 352 2 42 48 50 54 48 46 40 34 33
348 351 353 353 353 352 353 355 356 355 355 355 354 355 355 351 351 352 353 356 353 348 352 22 59 62 72 70 84 89 40 347 5 6 4 10 13 13 18 26 39 44 49 27 27 34 12 228 181 171 278 198 192 230 190 283 352 338 313 308 288 275 182 177 142 123 144 142 197 269 306 314 322 289 73 55 22 351 9 56 60 55 56 46 44 39 34 32
346 348 350 352 351 350 351 354 355 354 355 355 353 355 354 350 348 350 355 356 350 349 5 54 91 76 66 67 70 92 114 13 13 12 10 15 25 22 15 26 45 43 56 47 39 36 9 148 195 228 341 315 292 282 145 49 321 328 334 306 300 310 161 156 91 61 151 128 196 239 297 309 273 79 57 43 5 342 21 72 64 56 53 43 43 38 36 29
342 346 349 350 349 348 350 353 355 354 354 354 352 353 353 348 345 348 353 353 353 3 33 36 131 153 45 72 78 115 139 17 15 15 16 18 17 12 10 26 52 50 68 92 66 63 32 121 214 260 20 289 320 3 177 214 271 267 87 256 312 338 178 144 86 20 69 141 186 276 321 315 312 35 59 56 343 342 56 78 61 58 51 43 43 37 37 29
340 343 347 349 347 346 350 352 353 353 353 353 351 352 351 345 342 345 348 351 357 18 44 33 105 146 66 98 156 121 67 22 16 14 16 17 11 358 3 21 58 59 74 86 67 73 62 112 170 139 92 308 316 313 250 212 170 275 227 184 357 352 310 15 60 32 51 146 246 345 328 311 319 346 47 22 316 12 76 81 65 61 51 46 43 35 35 29
340 342 346 348 345 345 349 351 352 352 352 352 351 350 349 342 339 341 342 352 359 26 44 49 102 128 103 103 179 118 59 45 14 7 5 5 4 343 340 2 75 81 91 81 87 87 60 105 159 330 59 277 279 292 273 207 148 324 335 303 9 356 307 336 51 70 45 16 347 355 331 316 306 316 356 342 8 78 85 82 68 61 54 48 42 35 33 26
339 341 345 347 344 344 347 350 350 350 350 351 350 349 348 341 336 333 339 352 359 43 42 56 87 97 125 93 156 120 45 34 7 360 353 353 349 333 334 350 95 94 129 93 106 102 43 59 119 324 312 320 316 325 310 275 203 53 22 328 329 328 311 325 74 93 32 357 359 18 338 311 294 309 329 338 69 92 91 82 71 63 55 49 44 38 32 24
338 339 344 346 344 343 345 349 349 348 349 349 349 348 349 341 332 323 340 352 360 71 57 69 60 49 115 54 160 115 9 337 358 359 347 341 332 332 337 335 92 84 151 98 60 127 16 47 133 292 195 39 353 344 328 316 324 345 356 325 306 307 305 313 319 76 20 351 320 297 243 293 296 312 324 355 91 99 93 82 71 62 54 49 45 38 33 26
336 337 342 345 342 342 345 347 348 348 347 348 350 348 346 341 331 315 350 354 358 101 59 66 32 27 125 34 262 333 314 290 343 4 350 332 322 339 350 347 108 126 190 217 2 16 350 356 192 274 266 16 13 12 346 327 321 311 321 316 303 299 288 297 305 359 6 342 316 313 356 318 303 310 338 48 95 98 90 83 70 60 52 47 42 35 33 26
334 336 341 343 342 342 344 347 349 348 346 349 352 348 345 349 337 283 357 360 27 66 335 32 2 266 275 343 309 326 313 280 311 0 353 332 313 231 5 359 208 211 315 278 1 28 341 308 237 299 346 354 359 5 316 313 311 299 305 298 296 302 286 289 302 344 360 336 324 334 339 330 310 320 11 80 97 92 89 79 63 56 48 43 39 33 27 22
334 336 340 342 341 342 345 347 348 349 351 352 355 355 356 358 346 249 355 2 77 42 315 340 344 259 293 311 321 335 330 227 274 357 354 338 309 192 307 340 259 359 45 318 329 25 319 327 340 320 353 341 329 304 286 303 294 284 296 285 290 301 295 298 303 346 9 339 326 332 333 336 318 332 47 102 95 83 80 66 57 50 45 43 38 31 21 18
334 335 339 341 340 342 345 347 347 354 359 356 5 23 42 7 355 324 339 338 125 92 291 307 268 265 287 290 326 345 354 181 254 344 354 344 290 202 340 5 323 347 37 266 277 237 285 328 36 80 360 336 316 285 269 284 271 275 294 296 300 302 305 304 293 345 11 343 320 325 333 345 323 336 80 105 88 83 72 60 56 42 43 40 30 24 12 10
333 334 338 339 340 342 345 346 348 355 360 3 29 69 101 90 83 238 290 301 297 156 260 301 264 269 286 284 326 348 337 257 252 334 354 344 322 2 356 31 22 338 359 299 278 314 326 335 90 68 59 114 69 189 243 277 276 286 305 301 303 321 322 307 231 13 355 328 316 326 330 327 325 24 93 98 92 95 81 72 63 42 41 30 22 18 4 1
331 334 337 338 341 342 345 347 347 354 6 24 56 87 108 125 163 180 167 286 297 290 260 325 271 276 305 359 9 350 331 312 291 357 351 340 355 32 349 41 43 272 331 350 1 336 312 350 80 91 141 170 203 165 236 284 273 287 324 305 309 343 340 316 297 334 322 286 303 321 316 304 331 92 95 98 107 113 107 84 62 46 39 23 15 5 354 352
331 335 336 339 342 343 345 345 349 6 23 48 71 83 109 159 210 169 156 267 289 303 332 150 280 282 355 43 27 357 359 10 330 342 348 348 50 341 342 68 15 205 150 40 90 254 281 338 59 116 131 182 296 278 266 309 300 317 23 331 321 337 328 303 310 321 316 283 330 334 319 286 127 111 111 119 118 111 91 50 36 37 33 18 11 360 350 345
331 335 338 339 342 346 345 345 6 17 25 55 62 72 108 166 191 166 183 287 261 281 218 178 211 190 130 62 9 3 172 126 326 312 342 2 27 306 30 101 293 253 140 125 237 259 273 349 26 122 91 49 326 312 2 337 304 310 88 29 325 317 313 310 317 327 322 307 52 14 331 283 97 98 141 135 105 83 55 31 25 23 20 11 4 359 352 344
330 336 341 339 343 347 346 352 13 7 18 69 43 53 107 87 178 173 200 305 222 227 146 161 181 164 156 359 13 60 180 145 340 321 351 8 8 319 206 190 324 10 154 181 292 277 272 44 14 85 64 36 350 306 323 119 292 302 79 6 314 305 312 315 321 329 311 301 12 32 309 273 314 81 138 129 100 81 43 27 24 16 14 8 359 356 352 348
330 339 342 341 345 347 352 13 354 1 25 30 359 29 94 185 168 175 234 301 201 164 139 168 169 168 185 325 358 218 239 87 304 352 23 5 358 181 268 265 186 135 133 212 285 240 146 148 97 56 46 1 311 296 41 124 276 297 84 320 306 310 312 312 315 302 285 304 315 185 226 269 300 157 143 133 109 66 29 18 14 11 9 4 0 359 356 354
330 341 345 345 347 352 23 40 345 26 73 306 331 35 118 142 161 174 292 305 210 127 94 129 135 108 346 192 155 195 334 9 250 314 31 10 18 172 260 280 204 173 118 223 272 5 118 187 78 29 342 295 289 324 63 183 231 33 46 280 279 295 298 299 299 288 292 320 304 227 208 263 280 205 140 123 89 21 14 8 5 7 3 360 359 357 356 354
330 340 346 348 348 357 25 13 345 67 21 328 331 22 125 143 167 187 333 268 230 110 89 96 149 81 345 221 166 71 67 59 329 327 357 28 32 40 254 72 138 130 123 230 259 13 60 345 34 237 264 265 119 78 64 134 125 347 306 259 258 274 281 277 278 292 310 298 282 276 205 265 280 274 277 111 87 16 0 359 3 3 359 359 357 354 353 350
330 338 346 348 349 346 351 353 19 52 1 338 2 90 130 151 202 285 255 242 290 124 146 272 205 329 337 263 252 64 148 234 347 342 354 96 28 36 85 283 167 150 131 240 247 257 38 343 280 212 296 354 116 112 77 82 8 290 283 298 299 293 283 273 275 302 308 265 258 211 122 327 297 272 275 102 85 29 358 353 357 358 358 358 354 350 347 343
329 338 343 346 347 333 333 336 7 29 12 349 46 109 152 171 272 233 240 250 67 170 152 58 333 13 42 276 270 215 129 306 330 333 23 116 7 39 113 226 207 186 210 193 208 283 94 167 183 80 356 40 136 150 151 152 273 276 5 357 331 307 270 259 263 216 255 262 178 160 115 332 277 262 105 113 80 31 6 358 356 358 358 354 347 342 340 336
330 337 341 345 348 337 307 234 344 23 25 19 45 156 206 319 251 217 236 30 106 250 140 108 337 51 77 102 251 240 102 264 40 58 74 78 353 33 293 257 212 266 260 183 170 312 187 148 32 348 18 286 200 184 175 184 289 24 37 12 332 315 313 283 278 250 258 253 158 148 10 313 266 274 156 132 74 24 8 6 3 360 353 345 340 335 333 332
330 335 337 341 346 332 221 213 349 41 48 49 43 240 61 309 248 219 215 267 315 33 65 89 56 96 93 285 250 173 183 234 150 91 116 152 234 206 273 272 268 281 272 131 6 287 209 128 291 231 160 8 240 209 215 206 47 43 46 27 331 330 327 300 298 299 283 264 169 152 344 276 267 271 165 140 55 15 8 11 7 356 343 336 332 327 327 328
328 333 331 332 329 285 195 190 176 108 104 112 187 290 89 236 249 127 219 251 305 27 69 99 79 125 204 253 274 178 234 235 112 103 178 166 221 218 213 225 234 279 237 216 264 240 247 240 191 193 175 74 97 37 360 67 77 70 95 167 265 287 284 284 305 312 304 304 283 239 205 245 288 147 150 149 34 7 6 5 354 342 334 330 327 322 325 325
323 327 321 315 295 233 181 188 178 148 163 175 157 205 225 238 243 209 235 258 318 291 99 145 188 286 242 224 271 220 241 247 95 159 213 188 221 220 179 192 204 208 169 195 203 156 245 259 74 55 307 46 90 59 10 95 119 106 124 226 249 204 241 268 302 295 292 301 293 241 206 254 271 139 146 150 352 0 359 349 337 333 330 329 325 323 325 323
312 318 311 291 272 221 184 193 173 154 166 163 178 218 227 236 210 194 199 129 131 148 350 270 211 253 269 227 177 174 198 227 171 215 212 207 232 213 152 143 177 219 224 206 187 165 243 255 93 110 47 48 26 119 54 339 314 141 188 241 123 98 238 269 286 154 242 277 278 264 274 286 260 156 143 37 352 351 346 337 333 331 330 330 326 327 328 325
293 298 280 267 264 206 182 182 162 155 156 160 217 232 231 228 210 194 162 130 98 113 48 296 216 208 268 261 201 179 170 217 208 203 217 213 220 167 153 156 169 206 276 301 224 165 278 250 159 169 108 67 336 86 81 9 339 178 241 330 101 139 162 206 280 307 283 273 272 280 285 291 293 252 134 10 347 342 336 335 333 332 333 330 327 329 329 326
269 272 259 252 238 186 174 170 158 154 125 173 231 244 222 198 208 184 154 140 113 135 172 248 226 190 241 258 228 162 167 198 168 177 232 213 206 149 145 166 181 184 298 315 249 98 319 256 190 165 110 113 250 116 98 45 11 360 298 24 99 233 189 149 186 300 293 283 281 290 294 290 282 281 20 346 341 339 334 334 332 332 333 328 327 329 327 325
208 201 277 226 195 178 174 164 150 144 177 202 229 245 211 202 220 180 168 154 121 147 195 231 229 213 206 214 230 166 179 204 173 177 225 207 209 143 140 162 177 174 185 200 210 145 189 249 220 132 115 128 199 227 189 151 83 56 209 155 249 283 218 181 140 271 273 276 281 299 309 298 244 113 353 335 341 338 331 332 331 329 329 325 326 327 324 324
171 131 258 190 174 169 162 149 135 160 217 214 225 230 179 215 230 193 198 194 162 190 221 217 210 228 228 206 231 218 201 218 197 195 214 204 233 167 154 161 159 155 138 143 208 187 156 228 224 141 140 201 198 201 199 165 145 172 194 186 198 171 150 221 231 176 236 267 273 288 293 281 150 70 337 328 337 334 328 328 325 324 324 323 324 325 323 322
140 115 228 184 168 157 144 136 158 191 213 230 234 228 197 205 198 187 215 225 216 226 242 205 206 226 237 231 237 199 187 224 202 208 227 207 223 213 171 156 152 151 144 148 189 206 169 203 209 169 195 222 196 39 343 223 198 217 217 197 186 163 153 258 256 173 167 242 242 266 279 279 269 317 308 317 328 328 326 323 320 322 323 323 324 323 321 320
142 232 184 170 167 156 146 174 198 170 228 225 219 222 195 182 182 179 173 164 236 247 206 216 220 222 223 230 234 174 178 225 192 197 236 213 209 229 166 146 136 140 149 144 149 170 104 130 220 221 216 199 40 18 330 238 200 201 215 179 163 161 162 224 259 249 217 226 214 246 270 278 239 166 263 330 329 323 321 320 321 322 322 322 322 321 320 320
194 205 148 166 173 163 160 225 196 186 242 231 271 235 183 173 183 176 169 171 201 207 202 219 201 209 224 214 199 181 185 219 196 188 220 213 189 106 144 145 127 132 154 145 144 145 110 126 205 235 214 101 73 61 59 66 154 162 177 174 179 187 175 215 259 276 282 245 220 237 260 262 132 123 335 330 323 317 317 321 323 322 321 320 319 319 321 321
203 158 123 175 185 178 189 219 209 226 232 220 253 233 189 218 198 176 182 192 188 174 192 219 195 210 226 192 185 196 182 203 213 194 188 179 150 78 116 140 143 159 169 165 169 165 168 168 162 233 258 183 150 143 120 156 204 200 202 189 195 199 170 204 248 244 259 239 218 225 255 254 202 16 322 319 317 315 318 322 323 323 321 318 319 322 322 321
172 146 77 179 195 203 225 220 214 241 233 220 236 227 212 234 208 198 209 207 193 174 187 215 193 196 188 151 203 209 193 217 233 198 143 140 132 71 99 135 184 159 139 4 185 163 198 201 170 222 256 246 249 253 152 178 204 206 205 197 200 199 183 186 211 216 237 234 214 223 251 267 282 305 309 311 317 318 321 323 323 324 320 319 322 324 324 322
173 204 152 132 208 229 253 254 209 245 234 221 242 231 211 220 223 211 219 213 195 182 189 198 147 149 143 175 216 219 202 217 231 183 160 146 146 192 155 135 88 260 249 138 120 119 139 224 219 228 242 250 267 292 100 134 211 225 219 209 199 194 194 197 195 210 235 259 251 246 252 271 286 296 304 313 321 321 321 323 324 324 321 321 326 324 320 318
192 207 173 150 209 228 234 237 217 235 234 214 223 217 207 220 229 198 199 207 196 186 194 205 175 185 191 187 210 225 191 188 203 191 173 148 134 112 114 125 174 248 238 177 137 138 143 218 226 230 242 254 275 291 123 155 245 248 247 242 222 197 185 186 201 222 240 270 263 258 262 272 282 295 306 313 320 322 321 322 322 323 322 323 325 321 316 318
194 204 173 169 206 219 216 215 206 220 233 222 221 227 216 218 219 206 192 187 195 186 194 222 205 205 206 189 189 210 178 188 219 199 149 141 139 131 140 168 200 217 209 186 181 176 188 242 224 222 246 254 271 283 266 252 260 252 251 258 250 223 196 192 210 225 231 241 251 268 284 282 284 295 303 310 319 322 320 318 317 319 322 322 320 318 318 324
178 243 222 191 227 228 207 187 184 208 223 220 226 233 225 223 223 216 168 128 222 208 204 224 219 206 209 197 189 205 188 187 216 195 153 152 150 151 167 183 186 183 174 168 192 196 190 240 209 217 260 257 248 263 263 256 256 251 252 258 257 246 232 224 227 229 232 242 251 265 278 278 283 293 298 306 315 317 314 313 314 318 322 321 320 321 323 327
179 198 191 184 250 235 211 177 175 200 219 216 227 231 225 229 229 218 169 187 213 204 198 223 225 204 204 203 201 217 209 191 197 173 154 159 161 170 187 172 151 157 169 169 176 238 228 155 130 183 273 257 229 242 254 252 248 249 258 261 257 254 251 247 241 232 233 247 255 265 272 274 283 296 301 307 311 312 313 311 313 319 321 320 322 326 327 326
199 197 180 165 240 212 201 197 180 204 224 215 223 229 225 230 227 219 215 215 218 207 192 213 220 199 192 207 212 223 217 183 162 147 159 176 181 177 184 164 148 153 170 177 164 202 217 192 99 139 266 255 197 216 245 256 254 251 258 262 256 246 246 245 231 213 220 247 263 270 272 278 298 310 310 310 310 314 317 313 315 319 318 320 325 327 325 323
196 197 180 181 238 219 206 204 187 212 233 217 214 223 227 231 224 215 225 226 219 220 205 202 203 178 167 211 216 215 173 115 104 106 139 153 108 116 146 148 152 154 159 169 165 170 187 191 147 172 261 274 138 168 235 256 261 252 247 252 245 232 237 243 232 216 220 241 262 268 270 285 306 314 313 312 313 318 320 318 317 314 311 319 328 326 321 319
Height
845 843 842 841 839 838 835 834 832 830 829 827 825 823 821 819 817 815 813 811 810 808 806 805 803 802 801 801 801 801 801 800 800 799 802 807 808 806 805 804 802 801 799 798 797 796 795 795 795 795 793 794 797 798 800 801 801 799 799 800 800 801 802 799 799 800 800 797 791 791 795 798 798 796 794 791 788 787 784 782 780 780 779 777 776 775 776 776
845 844 842 841 839 838 836 834 832 830 829 827 825 823 821 819 817 815 812 810 809 807 806 804 802 801 800 800 800 800 800 800 800 802 806 809 808 806 805 804 803 801 800 799 798 798 797 797 796 795 794 795 798 799 800 801 801 801 801 800 798 800 800 799 798 799 800 798 793 790 794 799 798 796 795 792 785 784 784 780 778 778 776 774 774 776 777 776
846 844 842 841 839 837 836 834 832 830 828 827 825 823 821 818 816 814 812 810 808 806 805 803 801 800 799 799 799 799 800 800 801 806 809 809 807 806 805 804 803 801 800 799 799 798 798 798 796 795 795 796 799 800 799 802 801 802 802 797 796 800 800 800 800 800 801 800 797 792 794 797 796 796 796 793 787 782 782 781 782 782 779 776 774 775 775 775
846 845 843 841 839 837 836 834 832 830 828 827 825 823 821 818 816 814 811 809 807 806 804 802 801 799 799 798 798 800 799 800 807 811 809 808 808 806 806 804 803 802 800 800 799 798 798 797 795 795 796 797 800 801 800 802 802 804 801 794 797 803 800 800 801 801 802 803 800 795 795 796 794 797 795 793 790 782 781 782 785 787 785 783 778 776 776 775
847 845 844 842 840 838 836 834 832 830 828 826 825 823 821 818 816 813 811 809 807 806 804 802 801 799 799 798 799 799 799 807 813 811 810 809 807 806 806 804 803 802 801 800 799 798 797 796 795 796 797 798 799 799 800 804 804 803 797 793 798 802 800 799 801 803 804 804 802 796 796 796 794 794 793 793 793 786 783 784 786 788 787 786 782 781 780 779
847 846 844 842 840 838 836 834 832 830 829 826 824 822 820 818 816 813 811 809 807 806 804 802 801 800 800 798 799 799 803 814 815 811 811 809 807 807 806 805 804 803 802 800 800 799 798 797 796 799 800 799 802 801 801 804 805 800 793 795 798 799 801 800 801 805 805 804 801 795 796 798 794 792 792 793 792 786 784 786 788 788 786 785 783 783 783 782
848 846 845 843 841 839 836 834 832 830 829 827 824 822 820 818 815 813 811 809 807 806 804 803 802 802 801 800 801 802 807 815 815 812 812 809 808 807 806 805 804 803 803 801 800 799 799 799 798 802 802 800 804 804 803 805 805 801 795 795 798 799 801 799 801 804 804 804 799 796 797 796 792 792 795 793 788 785 786 787 788 786 784 784 783 784 785 785
848 846 845 843 841 839 837 834 832 830 828 826 824 822 820 817 815 813 811 808 807 806 804 803 802 802 802 801 803 806 811 816 816 814 812 810 808 807 806 805 804 804 803 802 802 801 801 801 801 804 802 801 805 804 804 804 801 801 796 794 796 798 799 799 801 803 803 802 800 800 796 790 790 794 795 790 786 787 787 787 787 786 785 785 786 787 787 787
848 846 845 843 841 839 837 835 832 830 828 826 824 822 819 817 815 813 811 808 807 806 805 803 803 802 802 802 803 809 817 818 816 815 812 811 809 807 806 805 805 804 804 803 803 802 801 803 804 803 802 804 806 803 805 802 798 799 796 795 796 795 797 798 800 801 802 803 802 801 792 785 791 794 791 787 788 789 785 786 788 787 788 789 790 790 790 790
848 846 845 843 841 839 837 835 833 830 828 826 824 822 819 817 815 813 810 808 807 806 805 803 803 802 802 802 804 814 820 818 816 815 812 811 809 808 807 806 806 805 804 804 803 803 803 804 804 803 803 804 805 804 805 802 799 801 799 797 796 794 796 798 799 799 802 805 803 799 789 785 791 791 787 787 788 787 784 787 790 790 792 793 793 794 793 793
848 846 845 843 841 839 837 835 833 831 829 826 824 822 819 817 815 813 810 809 807 806 805 804 804 803 802 802 807 817 819 816 816 814 812 811 810 809 808 807 806 805 805 804 804 804 804 804 804 804 803 802 804 804 804 803 801 804 803 798 793 790 795 798 797 799 800 804 805 800 793 788 790 789 786 788 789 785 785 790 794 794 796 797 797 797 796 796
848 846 845 843 841 839 837 835 833 831 829 826 824 822 820 817 815 813 811 809 807 805 804 804 804 804 803 805 811 817 817 816 815 814 813 811 809 809 808 808 807 806 805 804 804 804 804 804 803 803 803 802 801 801 803 804 804 805 805 800 789 783 792 796 794 796 797 803 806 802 797 790 786 786 785 788 789 785 787 793 797 798 799 800 799 799 799 798
848 846 845 843 841 839 837 835 832 830 828 826 824 822 820 817 815 813 811 810 807 805 804 804 805 804 805 810 815 816 815 815 814 814 813 810 810 809 808 808 807 806 805 804 804 804 804 803 803 803 803 803 800 801 804 804 805 805 805 803 794 785 786 789 793 792 794 803 805 802 803 791 781 784 786 789 789 786 790 797 801 801 802 802 802 801 801 800
848 846 845 843 841 839 837 834 832 830 828 826 824 822 820 817 815 813 812 810 807 805 805 804 805 804 807 814 816 815 815 815 814 813 812 811 811 809 808 808 807 807 805 805 804 804 803 803 803 803 804 804 802 803 802 802 803 800 802 802 799 797 786 781 790 792 794 803 801 800 806 793 781 784 786 787 786 787 794 801 804 804 804 804 803 803 802 802
848 846 845 843 841 839 837 835 832 830 828 826 824 822 820 817 815 813 812 810 807 806 805 805 805 805 809 815 815 814 814 813 813 813 812 812 811 810 809 807 807 806 805 805 804 803 804 803 803 803 804 804 803 803 796 796 800 799 801 799 798 805 794 783 791 795 797 802 798 800 806 797 786 784 784 784 785 790 799 804 806 806 805 805 804 804 803 803
848 846 845 843 841 839 837 834 832 830 828 826 824 822 820 817 815 813 812 810 807 806 805 806 807 806 811 816 815 814 814 813 813 812 812 812 812 811 809 808 807 806 805 805 804 804 803 803 807 809 806 804 804 802 793 791 795 796 802 805 804 808 802 791 794 799 800 801 800 802 808 801 789 785 783 782 786 794 803 806 807 807 806 806 805 804 804 803
847 846 845 843 841 839 837 834 832 830 828 826 824 822 820 818 815 812 812 810 808 807 806 807 808 807 812 816 815 815 815 814 813 812 812 812 811 811 810 808 807 807 805 805 803 803 803 804 810 809 806 805 804 802 798 799 801 800 805 810 809 810 808 799 795 798 799 802 802 801 805 802 790 786 783 780 789 798 803 807 808 808 807 806 806 805 805 804
847 846 844 843 841 839 837 834 832 830 828 826 824 821 819 817 814 812 811 809 807 806 806 807 808 813 818 816 815 816 815 814 813 812 812 811 810 810 810 808 808 808 806 804 803 803 803 804 806 804 802 804 805 807 810 813 814 814 815 815 812 811 810 804 797 796 798 801 800 797 801 800 792 786 782 784 794 799 804 808 808 808 808 807 807 806 806 805
847 845 844 843 841 839 837 834 832 830 828 826 824 821 818 816 813 810 810 809 810 812 814 814 815 820 822 817 816 816 814 814 813 812 812 811 810 810 809 808 808 807 804 804 803 806 807 803 804 805 806 810 814 818 818 817 819 820 820 821 819 813 808 803 797 796 800 799 793 795 800 798 792 785 784 794 799 801 805 807 808 809 808 808 808 807 807 807
846 845 844 842 840 839 837 834 833 831 828 826 824 819 819 820 816 813 813 813 817 821 821 821 823 823 820 817 817 816 814 814 813 813 812 811 810 810 809 808 807 804 808 812 810 812 812 807 808 811 814 819 821 823 822 821 823 822 821 820 816 811 806 801 798 797 801 799 791 791 795 795 790 783 788 799 799 801 806 807 809 809 809 810 809 809 808 807
846 844 843 842 840 838 836 835 833 831 830 828 824 823 828 832 829 827 824 819 820 823 823 823 825 823 819 819 818 817 817 815 814 814 812 812 810 809 808 808 808 806 814 822 816 813 812 809 814 817 820 826 826 826 827 825 824 822 820 817 811 809 806 800 799 799 801 802 793 786 790 794 788 782 791 799 799 804 808 808 811 810 809 810 809 809 808 807
845 843 842 842 840 838 836 835 833 832 832 829 827 830 837 839 837 838 836 828 822 823 824 824 824 823 820 820 819 819 819 817 816 814 813 813 808 809 810 811 814 814 818 821 815 814 813 810 817 821 826 831 830 830 829 825 823 820 817 816 812 810 807 800 798 800 804 804 794 787 792 793 785 786 797 801 801 808 810 810 812 809 809 808 808 808 806 805
844 842 842 841 839 838 836 835 834 833 832 830 831 836 839 840 839 838 839 836 828 822 822 823 823 823 820 820 820 820 819 820 820 816 815 814 810 813 814 814 818 820 821 818 816 822 817 812 821 827 830 830 828 830 828 822 819 819 818 817 815 816 817 809 802 803 803 802 799 795 794 789 785 792 803 806 805 809 811 809 809 808 807 808 807 807 804 803
843 842 841 840 839 838 836 835 834 834 834 833 835 838 839 839 839 839 838 836 831 824 822 823 823 822 821 821 821 821 821 823 823 819 818 816 815 818 817 820 823 821 823 824 825 826 818 819 829 830 830 827 824 823 823 820 815 818 824 823 821 823 825 820 811 805 798 799 805 800 791 784 784 792 801 805 806 806 807 805 804 805 806 806 805 804 803 801
842 841 840 839 838 837 836 835 834 835 835 836 837 838 839 839 838 839 837 834 831 824 822 822 823 822 821 821 821 821 822 823 823 821 820 819 818 820 821 825 823 819 825 830 829 824 818 826 832 827 826 827 824 820 821 824 818 817 826 831 829 828 826 822 816 810 800 799 805 805 803 791 779 785 795 800 801 802 804 803 803 804 804 805 804 802 801 799
841 840 839 838 837 837 836 835 836 836 835 837 838 838 839 838 838 839 836 835 830 822 821 823 822 821 821 821 822 822 823 823 823 822 821 821 820 821 822 825 824 823 828 830 827 823 823 830 832 826 825 826 824 821 823 827 820 818 827 834 833 829 826 821 818 818 810 803 802 809 816 800 781 786 795 797 800 802 803 803 803 804 803 803 802 801 799 796
840 839 838 837 836 836 835 836 837 836 836 838 837 837 837 836 838 838 835 837 830 820 821 822 821 821 820 822 822 821 822 822 822 822 822 821 820 820 819 821 823 825 829 829 824 823 826 829 829 827 826 826 822 820 826 829 823 821 830 835 832 827 825 821 820 820 812 807 805 806 813 805 789 788 792 794 798 800 801 802 801 802 803 802 800 799 797 795
839 838 837 836 836 835 835 836 837 836 838 837 836 837 836 836 838 835 837 843 831 818 819 820 819 820 819 821 822 820 821 821 821 821 822 822 821 820 819 820 822 823 829 829 820 822 828 827 828 829 828 826 823 824 831 832 825 824 832 836 831 827 825 823 820 814 810 815 813 802 806 808 794 784 786 792 797 800 802 803 802 802 803 801 799 797 796 795
838 837 836 836 835 835 836 836 836 837 837 836 836 836 835 837 836 833 842 845 827 815 819 819 818 820 820 820 821 820 820 821 821 820 821 822 821 820 821 824 826 826 830 829 820 823 829 829 830 830 827 825 826 832 835 832 827 829 835 834 829 825 821 820 818 813 816 823 815 801 803 808 795 782 785 792 800 807 806 803 804 803 803 801 798 797 796 795
837 836 836 835 834 835 835 835 836 836 836 835 835 835 836 837 834 840 851 841 822 819 820 817 819 823 823 820 819 820 821 821 823 822 821 823 822 823 827 829 828 827 830 832 827 827 832 834 834 833 831 829 831 836 838 836 833 833 833 827 822 819 815 815 815 817 824 818 805 803 807 814 809 794 792 798 804 809 808 804 804 803 801 800 798 798 797 796
836 835 835 834 834 835 834 836 836 835 836 835 834 835 836 835 837 849 851 831 821 823 819 819 826 826 825 824 821 820 821 823 825 823 820 823 824 824 826 826 824 824 824 825 826 828 832 833 832 834 836 834 832 835 838 839 836 831 826 823 822 819 816 817 816 823 828 813 804 809 811 818 815 796 795 805 806 807 807 805 804 802 801 800 799 798 797 797
835 834 833 833 833 834 834 835 834 835 835 833 835 834 834 841 845 843 835 822 822 824 819 824 830 827 829 831 826 824 825 824 825 825 826 830 830 830 832 827 823 821 816 817 823 824 826 832 835 836 837 837 832 828 831 833 830 826 824 829 832 826 821 819 813 813 812 802 802 809 814 817 804 787 793 804 805 806 805 804 804 803 803 802 801 800 798 797
834 832 832 832 832 833 834 834 834 835 833 834 835 831 836 852 848 834 827 822 822 825 824 828 832 832 833 829 823 828 831 825 824 829 833 835 834 835 842 842 836 826 816 821 826 822 823 833 838 834 831 837 833 825 824 825 826 828 830 836 838 836 839 833 816 808 806 800 801 809 823 821 796 784 794 800 803 804 802 802 804 804 805 804 802 801 798 796
832 831 831 830 832 832 833 834 833 833 833 834 833 834 847 855 842 833 831 823 823 829 830 832 834 835 833 826 825 829 827 822 825 831 832 833 830 829 835 842 843 833 825 827 828 826 823 823 830 832 831 835 835 831 830 828 831 836 836 839 839 838 844 838 825 822 823 817 811 815 823 812 790 788 797 800 802 801 800 802 804 804 804 803 802 799 797 794
831 830 830 829 831 831 832 833 832 833 834 833 834 842 851 846 834 833 831 823 825 828 830 833 833 830 827 826 831 832 825 823 828 830 828 828 824 821 825 834 839 836 828 824 826 832 828 819 830 841 837 837 838 839 840 833 833 842 844 841 838 835 836 835 836 842 850 844 824 813 808 792 784 792 798 801 800 797 799 801 802 803 802 801 800 797 795 792
830 829 829 828 829 830 831 832 831 833 833 832 840 845 840 831 827 827 824 822 825 825 826 830 829 826 823 822 828 832 829 828 830 827 826 828 824 822 829 834 839 839 830 822 823 828 826 823 838 844 838 842 843 840 844 837 832 840 843 838 837 841 841 841 844 850 861 856 823 802 798 786 785 796 799 802 800 797 801 802 801 802 800 798 797 793 791 788
829 828 828 827 827 828 829 830 831 833 832 833 840 838 828 823 820 820 822 825 828 826 827 829 825 822 821 818 822 829 830 829 829 825 823 825 821 823 834 839 840 840 838 833 825 824 825 825 836 841 837 845 849 842 844 847 840 837 837 836 840 845 846 853 863 857 852 845 817 800 803 796 792 798 800 801 801 800 800 800 799 799 797 795 792 790 788 784
827 827 826 825 826 827 828 829 830 831 832 835 837 831 825 821 818 818 822 824 826 826 828 829 824 819 820 818 818 826 830 826 825 825 823 819 817 822 831 836 840 842 844 842 831 830 832 824 831 844 842 845 850 842 839 847 849 844 841 841 843 845 845 854 869 863 852 848 829 807 804 799 791 795 802 803 803 802 801 800 799 797 796 794 790 788 786 782
826 826 825 823 824 826 827 828 830 831 833 834 833 827 823 819 817 819 820 819 822 824 825 823 820 818 819 819 818 822 827 823 821 824 822 814 814 823 828 830 837 842 845 844 835 834 836 827 828 842 846 846 846 840 836 842 850 850 848 847 846 847 848 851 860 862 858 856 843 824 813 800 790 797 806 806 804 804 804 802 800 798 796 794 790 788 785 781
825 826 823 821 823 825 826 828 831 832 831 828 824 821 821 819 816 818 818 816 817 819 819 818 819 818 817 818 818 819 823 824 823 823 821 815 813 821 828 829 833 841 846 845 839 837 836 830 828 838 847 844 835 833 832 833 843 847 845 847 848 849 853 856 858 862 863 859 853 847 828 799 790 802 806 804 805 807 806 804 802 799 797 794 791 788 784 780
825 825 822 821 822 823 826 829 830 830 827 823 820 819 819 816 813 816 819 819 816 814 815 817 817 815 815 816 817 818 823 827 826 821 818 815 811 814 825 830 830 838 843 841 839 837 834 832 831 836 841 835 831 839 840 836 839 840 836 839 844 849 856 861 859 862 870 866 857 858 841 805 794 804 803 803 807 806 805 805 802 799 796 793 790 787 783 779
823 823 820 821 822 822 824 825 827 830 824 817 815 815 814 812 811 813 818 822 821 817 818 819 817 815 815 813 813 817 821 822 825 822 814 811 809 812 825 832 831 834 836 835 838 839 838 839 838 833 832 835 842 849 849 844 840 839 837 837 842 849 855 860 859 858 866 865 857 862 854 817 798 802 803 803 805 804 805 804 801 798 795 792 789 786 782 777
821 820 819 821 821 821 822 822 826 828 822 814 812 811 810 811 812 812 815 820 820 818 819 818 816 814 812 810 813 817 818 816 815 814 813 813 816 824 832 834 833 833 833 834 838 840 840 842 841 832 828 840 851 849 847 846 842 840 841 842 845 847 848 852 853 855 865 865 861 871 861 819 797 801 802 802 804 804 804 802 801 800 795 792 789 783 779 775
819 819 820 822 822 822 818 814 816 817 815 814 814 811 812 812 810 809 812 813 812 814 816 813 811 809 809 811 813 812 814 812 806 806 812 818 824 833 837 835 834 833 831 832 832 833 833 832 836 834 827 833 841 842 845 849 844 840 838 841 844 844 848 854 854 861 872 863 857 869 856 813 793 797 799 802 804 802 801 802 801 799 795 790 786 781 776 772
817 817 819 820 821 821 814 806 806 806 806 810 809 806 808 809 805 803 804 803 805 808 808 807 808 807 809 815 814 811 810 805 801 806 815 822 830 837 839 838 837 834 833 835 832 830 831 829 828 829 825 822 819 819 828 836 838 838 837 841 845 845 850 857 859 867 868 853 849 855 839 805 792 797 800 801 802 801 800 800 799 798 794 788 783 779 775 770
812 812 816 822 822 819 813 808 808 804 800 804 803 798 800 802 800 801 800 798 801 803 802 804 807 808 811 814 812 812 811 806 807 812 817 825 834 837 838 840 840 838 837 838 835 832 837 837 828 821 818 813 807 808 821 830 832 834 836 839 843 846 848 852 860 863 855 849 846 835 822 812 804 801 801 800 801 801 799 798 797 795 790 784 782 779 774 769
808 804 806 815 816 814 813 810 810 805 798 798 796 791 791 793 794 799 801 798 797 799 801 803 804 803 805 808 806 806 809 809 812 816 817 825 834 837 839 841 841 840 838 838 838 836 841 842 832 824 820 814 811 817 826 831 831 831 834 835 836 842 847 852 856 850 844 851 843 817 812 819 809 801 801 800 801 802 800 797 795 792 788 785 783 780 774 768
801 796 794 797 795 797 802 804 804 804 799 796 791 785 787 789 788 791 796 799 799 797 798 799 797 793 792 796 799 802 809 812 812 814 817 823 832 837 840 841 839 839 839 841 839 837 839 838 832 830 830 825 824 827 828 830 832 831 833 833 831 836 843 849 850 842 840 846 832 811 812 815 806 802 801 799 801 803 800 797 793 790 788 786 783 778 772 766
794 794 792 791 785 782 786 790 796 800 798 795 789 782 783 784 780 780 789 798 799 796 790 785 785 788 788 789 792 795 801 805 805 810 816 821 827 833 834 836 837 838 840 841 841 838 838 836 833 835 837 834 833 832 830 832 834 833 833 830 828 830 833 836 838 835 834 832 821 814 817 811 802 801 799 798 801 802 800 797 792 790 790 787 783 777 771 767
783 784 785 790 787 783 784 786 791 796 793 790 785 778 776 774 770 773 781 783 783 786 788 779 774 781 786 787 787 785 785 790 794 803 813 817 822 827 826 826 831 838 840 840 841 840 839 838 839 842 843 839 835 834 833 834 836 837 835 827 825 828 827 826 828 828 828 825 815 815 815 806 798 798 798 798 800 799 800 796 791 791 790 787 782 776 772 769
769 771 774 782 782 779 782 782 785 789 783 779 776 770 768 765 761 766 771 766 763 770 778 774 770 779 788 788 784 781 782 788 793 799 806 809 811 815 815 816 823 833 839 840 840 839 838 842 845 847 845 836 833 837 838 836 839 843 838 826 822 824 822 818 818 819 821 819 814 814 813 803 795 796 797 796 796 796 797 794 791 790 789 785 781 777 774 771
765 768 769 774 773 768 771 775 780 779 765 758 761 759 756 755 756 763 766 762 760 763 766 768 770 779 788 788 784 783 788 794 800 804 806 807 807 809 811 812 815 822 832 838 840 838 837 841 845 847 844 837 838 844 844 846 849 841 826 815 812 814 814 811 811 812 812 812 813 813 806 796 793 797 798 795 792 792 793 793 792 790 787 784 782 779 776 773